AZU4930 SBKP-SBPS

Flight info

Callsign AZU4930
Flight time 1h 31m
Altitude 39000
Route KONVI UZ23 KIBAP DCT NITLU UZ16 OSUNO
Aircraft A20N/M-SDE2E3FGHIRWXY/LB1

Departure

Time 2026-05-08 22:40
Airport Viracopos International Airport (SBKP)

Arrival

Time 2026-05-09 00:12
Airport Porto Seguro International Airport (SBPS)
Time Latitude Longitude Altitude Speed Heading
2026-05-08 22:25 -23.00528 -47.14983 2160 ft 1 kts 308°
2026-05-08 22:30 -23.00526 -47.14986 2160 ft 1 kts 308°
2026-05-08 22:30 -23.00524 -47.14988 2160 ft 0 kts 308°
2026-05-08 22:31 -23.00517 -47.14999 2160 ft 6 kts 308°
2026-05-08 22:31 -23.00487 -47.15041 2156 ft 14 kts 308°
2026-05-08 22:31 -23.00385 -47.15157 2160 ft 14 kts 353°
2026-05-08 22:31 -23.00331 -47.15130 2155 ft 13 kts 35°
2026-05-08 22:32 -23.00266 -47.15073 2158 ft 12 kts 37°
2026-05-08 22:32 -23.00204 -47.15021 2155 ft 11 kts 37°
2026-05-08 22:32 -23.00142 -47.14970 2157 ft 11 kts 37°
2026-05-08 22:32 -23.00080 -47.14919 2159 ft 11 kts 37°
2026-05-08 22:33 -23.00019 -47.14839 2153 ft 15 kts 75°
2026-05-08 22:33 -23.00046 -47.14739 2157 ft 14 kts 127°
2026-05-08 22:33 -23.00104 -47.14656 2155 ft 14 kts 127°
2026-05-08 22:33 -23.00163 -47.14571 2154 ft 13 kts 129°
2026-05-08 22:34 -23.00219 -47.14495 2153 ft 13 kts 128°
2026-05-08 22:34 -23.00276 -47.14416 2159 ft 15 kts 128°
2026-05-08 22:34 -23.00339 -47.14330 2158 ft 14 kts 128°
2026-05-08 22:34 -23.00399 -47.14246 2155 ft 14 kts 125°
2026-05-08 22:35 -23.00455 -47.14163 2159 ft 13 kts 128°
2026-05-08 22:35 -23.00521 -47.14071 2154 ft 18 kts 128°
2026-05-08 22:35 -23.00609 -47.13951 2157 ft 23 kts 128°
2026-05-08 22:35 -23.00714 -47.13802 2158 ft 27 kts 127°
2026-05-08 22:36 -23.00836 -47.13631 2155 ft 30 kts 128°
2026-05-08 22:36 -23.00961 -47.13457 2157 ft 29 kts 128°
2026-05-08 22:36 -23.01083 -47.13285 2159 ft 29 kts 127°
2026-05-08 22:36 -23.01206 -47.13119 2155 ft 28 kts 129°
2026-05-08 22:37 -23.01323 -47.12953 2156 ft 28 kts 127°
2026-05-08 22:37 -23.01438 -47.12789 2160 ft 27 kts 128°
2026-05-08 22:37 -23.01552 -47.12631 2155 ft 27 kts 128°
2026-05-08 22:37 -23.01664 -47.12474 2154 ft 26 kts 128°
2026-05-08 22:38 -23.01735 -47.12374 2154 ft 8 kts 128°
2026-05-08 22:38 -23.01750 -47.12331 2160 ft 5 kts 88°
2026-05-08 22:38 -23.01736 -47.12300 2157 ft 5 kts 50°
2026-05-08 22:38 -23.01710 -47.12275 2155 ft 4 kts 35°
2026-05-08 22:39 -23.01672 -47.12246 2153 ft 10 kts 36°
2026-05-08 22:39 -23.01615 -47.12233 2153 ft 8 kts 329°
2026-05-08 22:39 -23.01577 -47.12281 2158 ft 12 kts 308°
2026-05-08 22:39 -23.01425 -47.12492 2159 ft 67 kts 307°
2026-05-08 22:40 -23.01011 -47.13072 2154 ft 125 kts 307°
2026-05-08 22:40 -23.00374 -47.13962 2186 ft 168 kts 308°
2026-05-08 22:40 -22.99660 -47.14974 2661 ft 169 kts 308°
2026-05-08 22:40 -22.98900 -47.15939 3249 ft 168 kts 316°
2026-05-08 22:41 -22.97950 -47.16716 3863 ft 179 kts 333°
2026-05-08 22:41 -22.96701 -47.16864 4407 ft 192 kts 16°
2026-05-08 22:41 -22.95560 -47.16008 4858 ft 212 kts 42°
2026-05-08 22:41 -22.94366 -47.14868 5046 ft 244 kts 28°
2026-05-08 22:42 -22.92742 -47.14178 5548 ft 258 kts 16°
2026-05-08 22:42 -22.91150 -47.13224 6258 ft 270 kts 43°
2026-05-08 22:42 -22.90094 -47.11510 7048 ft 278 kts 58°
2026-05-08 22:42 -22.89235 -47.09606 7807 ft 284 kts 60°
2026-05-08 22:43 -22.88370 -47.07659 8601 ft 289 kts 60°
2026-05-08 22:43 -22.87473 -47.05701 9392 ft 292 kts 59°
2026-05-08 22:43 -22.86546 -47.03731 10140 ft 296 kts 59°
2026-05-08 22:43 -22.85574 -47.01704 10611 ft 312 kts 59°
2026-05-08 22:44 -22.84546 -46.99584 10937 ft 331 kts 59°
2026-05-08 22:44 -22.83454 -46.97335 11482 ft 342 kts 58°
2026-05-08 22:44 -22.82340 -46.95039 12179 ft 347 kts 59°
2026-05-08 22:44 -22.81209 -46.92711 12932 ft 351 kts 59°
2026-05-08 22:45 -22.80063 -46.90358 13693 ft 355 kts 59°
2026-05-08 22:45 -22.78902 -46.87974 14423 ft 359 kts 58°
2026-05-08 22:45 -22.77726 -46.85569 15189 ft 365 kts 58°
2026-05-08 22:45 -22.76536 -46.83130 15960 ft 367 kts 59°
2026-05-08 22:46 -22.75334 -46.80675 16658 ft 371 kts 58°
2026-05-08 22:46 -22.74048 -46.78249 17237 ft 373 kts 52°
2026-05-08 22:46 -22.72404 -46.76079 17820 ft 373 kts 43°
2026-05-08 22:46 -22.70599 -46.74056 18372 ft 375 kts 41°
2026-05-08 22:47 -22.68755 -46.72030 18850 ft 381 kts 43°
2026-05-08 22:47 -22.67084 -46.69771 19382 ft 389 kts 53°
2026-05-08 22:47 -22.65818 -46.67140 19908 ft 401 kts 65°
2026-05-08 22:47 -22.65088 -46.64213 20500 ft 406 kts 78°
2026-05-08 22:48 -22.64954 -46.61132 20953 ft 416 kts 90°
2026-05-08 22:48 -22.65180 -46.57983 21459 ft 421 kts 93°
2026-05-08 22:48 -22.65455 -46.54853 21941 ft 425 kts 93°
2026-05-08 22:48 -22.65736 -46.51602 22463 ft 431 kts 94°
2026-05-08 22:49 -22.66011 -46.48366 23055 ft 433 kts 93°
2026-05-08 22:49 -22.66545 -46.41846 24036 ft 441 kts 93°
2026-05-08 22:49 -22.66816 -46.38531 24421 ft 444 kts 94°
2026-05-08 22:50 -22.67092 -46.35176 24819 ft 448 kts 93°
2026-05-08 22:50 -22.67361 -46.31790 25258 ft 454 kts 93°
2026-05-08 22:50 -22.67626 -46.28381 25823 ft 454 kts 93°
2026-05-08 22:50 -22.67747 -46.24952 26222 ft 458 kts 86°
2026-05-08 22:51 -22.67358 -46.21533 26616 ft 457 kts 75°
2026-05-08 22:51 -22.66375 -46.18262 26968 ft 457 kts 63°
2026-05-08 22:51 -22.64842 -46.15273 27317 ft 453 kts 51°
2026-05-08 22:51 -22.62813 -46.12682 27552 ft 451 kts 40°
2026-05-08 22:52 -22.60497 -46.10401 27800 ft 451 kts 37°
2026-05-08 22:52 -22.58079 -46.08219 28111 ft 452 kts 35°
2026-05-08 22:52 -22.55625 -46.06084 28370 ft 455 kts 34°
2026-05-08 22:52 -22.53138 -46.03944 28669 ft 459 kts 34°
2026-05-08 22:53 -22.50644 -46.01791 29030 ft 458 kts 34°
2026-05-08 22:53 -22.48144 -45.99624 29267 ft 463 kts 34°
2026-05-08 22:53 -22.45624 -45.97440 29608 ft 465 kts 34°
2026-05-08 22:53 -22.43095 -45.95234 29954 ft 469 kts 35°
2026-05-08 22:54 -22.40561 -45.93006 30258 ft 472 kts 35°
2026-05-08 22:54 -22.38007 -45.90756 30647 ft 475 kts 35°
2026-05-08 22:54 -22.35449 -45.88493 31024 ft 477 kts 36°
2026-05-08 22:54 -22.32889 -45.86227 31536 ft 474 kts 36°
2026-05-08 22:55 -22.30335 -45.83973 31938 ft 475 kts 36°
2026-05-08 22:55 -22.27781 -45.81731 32287 ft 474 kts 35°
2026-05-08 22:55 -22.25214 -45.79501 32672 ft 473 kts 36°
2026-05-08 22:55 -22.22655 -45.77276 33005 ft 472 kts 35°
2026-05-08 22:56 -22.20092 -45.75051 33303 ft 474 kts 35°
2026-05-08 22:56 -22.17518 -45.72827 33703 ft 472 kts 35°
2026-05-08 22:56 -22.14948 -45.70623 34084 ft 471 kts 35°
2026-05-08 22:56 -22.12382 -45.68424 34381 ft 472 kts 35°
2026-05-08 22:57 -22.09853 -45.66247 34701 ft 471 kts 35°
2026-05-08 22:57 -22.07294 -45.64041 34979 ft 472 kts 35°
2026-05-08 22:57 -22.04693 -45.61798 35324 ft 471 kts 35°
2026-05-08 22:57 -22.02178 -45.59625 35580 ft 471 kts 35°
2026-05-08 22:58 -21.99610 -45.57419 35813 ft 472 kts 35°
2026-05-08 22:58 -21.97061 -45.55215 36049 ft 472 kts 36°
2026-05-08 22:58 -21.94496 -45.53000 36282 ft 472 kts 36°
2026-05-08 22:58 -21.91928 -45.50792 36489 ft 473 kts 36°
2026-05-08 22:59 -21.89352 -45.48587 36694 ft 474 kts 35°
2026-05-08 22:59 -21.86778 -45.46382 36974 ft 472 kts 36°
2026-05-08 22:59 -21.84212 -45.44183 37277 ft 471 kts 36°
2026-05-08 22:59 -21.81658 -45.41993 37592 ft 468 kts 35°
2026-05-08 23:00 -21.79113 -45.39811 37856 ft 467 kts 36°
2026-05-08 23:00 -21.76574 -45.37635 38099 ft 466 kts 36°
2026-05-08 23:00 -21.74038 -45.35461 38299 ft 466 kts 36°
2026-05-08 23:00 -21.71499 -45.33287 38449 ft 467 kts 36°
2026-05-08 23:01 -21.68959 -45.31113 38635 ft 467 kts 36°
2026-05-08 23:01 -21.66454 -45.28969 38837 ft 466 kts 36°
2026-05-08 23:01 -21.63912 -45.26794 38972 ft 467 kts 36°
2026-05-08 23:01 -21.61364 -45.24616 39036 ft 469 kts 36°
2026-05-08 23:02 -21.56261 -45.20255 39035 ft 468 kts 36°
2026-05-08 23:02 -21.51167 -45.15905 39022 ft 467 kts 36°
2026-05-08 23:03 -21.46075 -45.11563 39030 ft 467 kts 36°
2026-05-08 23:03 -21.40984 -45.07225 39036 ft 468 kts 36°
2026-05-08 23:04 -21.35885 -45.02885 39035 ft 468 kts 36°
2026-05-08 23:04 -21.30789 -44.98551 39045 ft 467 kts 36°
2026-05-08 23:05 -21.25696 -44.94221 39045 ft 467 kts 36°
2026-05-08 23:05 -21.20599 -44.89894 39045 ft 468 kts 36°
2026-05-08 23:06 -21.15495 -44.85566 39055 ft 468 kts 36°
2026-05-08 23:06 -21.10391 -44.81241 39055 ft 468 kts 36°
2026-05-08 23:07 -21.05284 -44.76926 39055 ft 467 kts 35°
2026-05-08 23:07 -21.00053 -44.72807 39063 ft 466 kts 33°
2026-05-08 23:08 -20.94753 -44.68802 39063 ft 467 kts 33°
2026-05-08 23:08 -20.89487 -44.64824 39073 ft 467 kts 33°
2026-05-08 23:09 -20.84192 -44.60798 39076 ft 467 kts 33°
2026-05-08 23:09 -20.79292 -44.56260 39079 ft 469 kts 49°
2026-05-08 23:10 -20.75596 -44.50521 39081 ft 469 kts 58°
2026-05-08 23:10 -20.72234 -44.44535 39090 ft 470 kts 59°
2026-05-08 23:11 -20.68919 -44.38504 39090 ft 470 kts 59°
2026-05-08 23:11 -20.65588 -44.32504 39091 ft 470 kts 59°
2026-05-08 23:12 -20.62234 -44.26517 39101 ft 470 kts 59°
2026-05-08 23:12 -20.58873 -44.20539 39101 ft 470 kts 59°
2026-05-08 23:13 -20.55513 -44.14566 39101 ft 469 kts 59°
2026-05-08 23:13 -20.52157 -44.08606 39110 ft 468 kts 59°
2026-05-08 23:14 -20.48887 -44.02599 39109 ft 468 kts 61°
2026-05-08 23:14 -20.45756 -43.96504 39111 ft 469 kts 62°
2026-05-08 23:15 -20.42641 -43.90411 39118 ft 468 kts 62°
2026-05-08 23:15 -20.39513 -43.84338 39113 ft 467 kts 62°
2026-05-08 23:16 -20.36374 -43.78277 39111 ft 468 kts 61°
2026-05-08 23:16 -20.33231 -43.72212 39116 ft 467 kts 62°
2026-05-08 23:17 -20.30104 -43.66194 39109 ft 467 kts 61°
2026-05-08 23:17 -20.26955 -43.60138 39111 ft 467 kts 61°
2026-05-08 23:18 -20.23804 -43.54084 39109 ft 467 kts 61°
2026-05-08 23:18 -20.20651 -43.48035 39110 ft 467 kts 61°
2026-05-08 23:19 -20.17497 -43.41986 39109 ft 467 kts 61°
2026-05-08 23:19 -20.14340 -43.35937 39124 ft 467 kts 61°
2026-05-08 23:20 -20.11184 -43.29888 39120 ft 468 kts 62°
2026-05-08 23:20 -20.08646 -43.24755 39120 ft 468 kts 63°
2026-05-08 23:21 -20.05706 -43.18581 39112 ft 468 kts 64°
2026-05-08 23:21 -20.02766 -43.12401 39108 ft 468 kts 64°
2026-05-08 23:22 -19.99810 -43.06233 39091 ft 468 kts 64°
2026-05-08 23:22 -19.96830 -43.00076 39090 ft 469 kts 61°
2026-05-08 23:23 -19.93015 -42.94460 39088 ft 469 kts 51°
2026-05-08 23:23 -19.88807 -42.89153 39082 ft 470 kts 49°
2026-05-08 23:24 -19.84525 -42.83913 39082 ft 470 kts 49°
2026-05-08 23:24 -19.80246 -42.78672 39091 ft 470 kts 49°
2026-05-08 23:25 -19.75975 -42.73425 39092 ft 469 kts 49°
2026-05-08 23:25 -19.71711 -42.68178 39082 ft 470 kts 49°
2026-05-08 23:26 -19.67468 -42.62964 39082 ft 470 kts 49°
2026-05-08 23:26 -19.63194 -42.57727 39082 ft 470 kts 49°
2026-05-08 23:27 -19.58919 -42.52488 39072 ft 470 kts 49°
2026-05-08 23:27 -19.54640 -42.47248 39073 ft 470 kts 49°
2026-05-08 23:28 -19.50366 -42.42012 39072 ft 469 kts 49°
2026-05-08 23:28 -19.46093 -42.36777 39070 ft 470 kts 49°
2026-05-08 23:29 -19.41817 -42.31537 39075 ft 470 kts 49°
2026-05-08 23:29 -19.37537 -42.26302 39070 ft 470 kts 49°
2026-05-08 23:30 -19.33259 -42.21077 39073 ft 469 kts 49°
2026-05-08 23:30 -19.28981 -42.15855 39073 ft 470 kts 49°
2026-05-08 23:31 -19.24701 -42.10633 39071 ft 469 kts 49°
2026-05-08 23:31 -19.20424 -42.05418 39073 ft 469 kts 49°
2026-05-08 23:32 -19.16141 -42.00202 39072 ft 470 kts 49°
2026-05-08 23:32 -19.11853 -41.94992 39072 ft 469 kts 49°
2026-05-08 23:33 -19.07562 -41.89794 39074 ft 469 kts 49°
2026-05-08 23:33 -19.03277 -41.84604 39073 ft 469 kts 49°
2026-05-08 23:34 -18.98992 -41.79407 39072 ft 469 kts 49°
2026-05-08 23:34 -18.94708 -41.74213 39074 ft 469 kts 49°
2026-05-08 23:35 -18.90422 -41.69021 39075 ft 469 kts 49°
2026-05-08 23:35 -18.86130 -41.63831 39073 ft 469 kts 49°
2026-05-08 23:36 -18.81842 -41.58648 39072 ft 468 kts 49°
2026-05-08 23:36 -18.77579 -41.53501 39072 ft 468 kts 49°
2026-05-08 23:37 -18.73296 -41.48330 39081 ft 468 kts 49°
2026-05-08 23:37 -18.71174 -41.45772 39073 ft 457 kts 49°
2026-05-08 23:37 -18.69096 -41.43268 39083 ft 454 kts 49°
2026-05-08 23:38 -18.64936 -41.38256 39086 ft 463 kts 49°
2026-05-08 23:38 -18.60646 -41.33092 39086 ft 472 kts 49°
2026-05-08 23:39 -18.56288 -41.27851 39081 ft 470 kts 49°
2026-05-08 23:39 -18.51989 -41.22689 39082 ft 468 kts 49°
2026-05-08 23:40 -18.47697 -41.17536 39081 ft 468 kts 49°
2026-05-08 23:40 -18.43432 -41.12420 39081 ft 468 kts 49°
2026-05-08 23:41 -18.39135 -41.07272 39082 ft 468 kts 49°
2026-05-08 23:41 -18.34843 -41.02131 39081 ft 467 kts 49°
2026-05-08 23:42 -18.30545 -40.96988 39082 ft 468 kts 49°
2026-05-08 23:42 -18.26241 -40.91841 39083 ft 468 kts 49°
2026-05-08 23:43 -18.21938 -40.86695 39082 ft 468 kts 49°
2026-05-08 23:43 -18.17631 -40.81554 39083 ft 468 kts 49°
2026-05-08 23:44 -18.13327 -40.76420 39082 ft 468 kts 49°
2026-05-08 23:44 -18.09022 -40.71289 39082 ft 468 kts 49°
2026-05-08 23:45 -18.04715 -40.66161 39082 ft 468 kts 49°
2026-05-08 23:45 -18.00408 -40.61036 39082 ft 468 kts 49°
2026-05-08 23:46 -17.96102 -40.55917 39083 ft 467 kts 50°
2026-05-08 23:46 -17.91792 -40.50795 39070 ft 468 kts 49°
2026-05-08 23:47 -17.89637 -40.48237 38840 ft 467 kts 50°
2026-05-08 23:47 -17.87486 -40.45684 38593 ft 467 kts 50°
2026-05-08 23:47 -17.85333 -40.43130 38338 ft 466 kts 50°
2026-05-08 23:47 -17.83190 -40.40589 37839 ft 466 kts 50°
2026-05-08 23:48 -17.81038 -40.38037 37184 ft 468 kts 50°
2026-05-08 23:48 -17.78876 -40.35475 36515 ft 470 kts 50°
2026-05-08 23:48 -17.76701 -40.32901 35815 ft 473 kts 50°
2026-05-08 23:48 -17.74509 -40.30309 35025 ft 477 kts 50°
2026-05-08 23:49 -17.72298 -40.27696 34241 ft 481 kts 50°
2026-05-08 23:49 -17.70069 -40.25062 33419 ft 485 kts 50°
2026-05-08 23:49 -17.67819 -40.22405 32554 ft 489 kts 50°
2026-05-08 23:49 -17.65551 -40.19727 31735 ft 492 kts 50°
2026-05-08 23:50 -17.63282 -40.17052 31151 ft 489 kts 49°
2026-05-08 23:50 -17.61030 -40.14395 30515 ft 486 kts 49°
2026-05-08 23:50 -17.58785 -40.11748 29855 ft 485 kts 49°
2026-05-08 23:50 -17.56564 -40.09131 29355 ft 479 kts 49°
2026-05-08 23:51 -17.54363 -40.06538 28832 ft 474 kts 49°
2026-05-08 23:51 -17.52186 -40.03974 28336 ft 468 kts 49°
2026-05-08 23:51 -17.50032 -40.01438 27778 ft 464 kts 49°
2026-05-08 23:51 -17.47901 -39.98929 27281 ft 459 kts 49°
2026-05-08 23:52 -17.45786 -39.96441 26757 ft 455 kts 49°
2026-05-08 23:52 -17.43600 -39.94076 26247 ft 451 kts 41°
2026-05-08 23:52 -17.41000 -39.92270 25734 ft 448 kts 30°
2026-05-08 23:52 -17.38259 -39.90744 25178 ft 445 kts 28°
2026-05-08 23:53 -17.35515 -39.89276 24676 ft 440 kts 28°
2026-05-08 23:53 -17.32806 -39.87828 24166 ft 435 kts 28°
2026-05-08 23:53 -17.30122 -39.86389 23583 ft 432 kts 28°
2026-05-08 23:53 -17.27467 -39.84960 23086 ft 426 kts 28°
2026-05-08 23:54 -17.24879 -39.83564 22551 ft 422 kts 28°
2026-05-08 23:54 -17.22284 -39.82163 22007 ft 418 kts 28°
2026-05-08 23:54 -17.19719 -39.80778 21523 ft 412 kts 28°
2026-05-08 23:55 -17.14773 -39.78109 21058 ft 388 kts 28°
2026-05-08 23:55 -17.12411 -39.76834 20860 ft 376 kts 28°
2026-05-08 23:55 -17.10122 -39.75599 20676 ft 365 kts 28°
2026-05-08 23:55 -17.07881 -39.74390 20172 ft 363 kts 28°
2026-05-08 23:56 -17.05616 -39.73167 19436 ft 369 kts 28°
2026-05-08 23:56 -17.03342 -39.71937 18877 ft 367 kts 29°
2026-05-08 23:56 -17.01142 -39.70638 18203 ft 360 kts 32°
2026-05-08 23:56 -16.99004 -39.69302 17456 ft 356 kts 32°
2026-05-08 23:57 -16.96895 -39.67971 16725 ft 352 kts 32°
2026-05-08 23:57 -16.94820 -39.66663 16070 ft 345 kts 32°
2026-05-08 23:57 -16.92792 -39.65386 15434 ft 338 kts 32°
2026-05-08 23:57 -16.90796 -39.64132 14799 ft 331 kts 32°
2026-05-08 23:58 -16.88882 -39.62932 14171 ft 326 kts 32°
2026-05-08 23:58 -16.86956 -39.61721 13533 ft 320 kts 32°
2026-05-08 23:58 -16.85062 -39.60532 12897 ft 315 kts 32°
2026-05-08 23:58 -16.83199 -39.59362 12265 ft 310 kts 32°
2026-05-08 23:59 -16.81365 -39.58212 11617 ft 306 kts 32°
2026-05-08 23:59 -16.79554 -39.57077 10975 ft 301 kts 32°
2026-05-08 23:59 -16.77773 -39.55960 10457 ft 294 kts 32°
2026-05-08 23:59 -16.76063 -39.54889 10187 ft 279 kts 32°
2026-05-09 00:00 -16.74445 -39.53866 9964 ft 264 kts 34°
2026-05-09 00:00 -16.72980 -39.52795 9755 ft 250 kts 38°
2026-05-09 00:00 -16.71615 -39.51726 9428 ft 243 kts 39°
2026-05-09 00:00 -16.70249 -39.50665 8760 ft 250 kts 34°
2026-05-09 00:01 -16.68588 -39.49983 7900 ft 265 kts 15°
2026-05-09 00:01 -16.66766 -39.49650 7046 ft 274 kts 11°
2026-05-09 00:01 -16.64860 -39.49350 6253 ft 278 kts 14°
2026-05-09 00:01 -16.63047 -39.48729 5682 ft 272 kts 26°
2026-05-09 00:02 -16.61408 -39.47814 5284 ft 261 kts 38°
2026-05-09 00:02 -16.60098 -39.46595 5075 ft 245 kts 47°
2026-05-09 00:02 -16.58992 -39.45319 4933 ft 230 kts 50°
2026-05-09 00:02 -16.57975 -39.44082 4796 ft 221 kts 51°
2026-05-09 00:03 -16.56992 -39.42861 4673 ft 220 kts 51°
2026-05-09 00:03 -16.56034 -39.41658 4587 ft 208 kts 52°
2026-05-09 00:03 -16.55141 -39.40538 4445 ft 193 kts 52°
2026-05-09 00:03 -16.54304 -39.39485 4310 ft 186 kts 52°
2026-05-09 00:04 -16.53485 -39.38446 4189 ft 185 kts 52°
2026-05-09 00:04 -16.52669 -39.37410 4068 ft 185 kts 52°
2026-05-09 00:04 -16.51860 -39.36371 4000 ft 185 kts 54°
2026-05-09 00:04 -16.51210 -39.35233 3895 ft 178 kts 68°
2026-05-09 00:05 -16.50816 -39.34049 3694 ft 170 kts 74°
2026-05-09 00:05 -16.50498 -39.32882 3434 ft 166 kts 75°
2026-05-09 00:05 -16.50197 -39.31729 3129 ft 164 kts 75°
2026-05-09 00:05 -16.49894 -39.30584 2822 ft 164 kts 75°
2026-05-09 00:06 -16.49595 -39.29454 2602 ft 158 kts 75°
2026-05-09 00:06 -16.49405 -39.28731 2488 ft 148 kts 75°
2026-05-09 00:06 -16.49148 -39.27761 2282 ft 134 kts 73°
2026-05-09 00:06 -16.48895 -39.26848 2006 ft 128 kts 75°
2026-05-09 00:07 -16.48660 -39.25971 1911 ft 125 kts 75°
2026-05-09 00:07 -16.48427 -39.25098 1940 ft 125 kts 75°
2026-05-09 00:07 -16.48194 -39.24226 1840 ft 125 kts 75°
2026-05-09 00:07 -16.47961 -39.23355 1825 ft 125 kts 74°
2026-05-09 00:08 -16.47725 -39.22478 1815 ft 127 kts 75°
2026-05-09 00:08 -16.47484 -39.21580 1817 ft 131 kts 76°
2026-05-09 00:08 -16.47234 -39.20653 1827 ft 134 kts 77°
2026-05-09 00:08 -16.46984 -39.19720 1821 ft 134 kts 76°
2026-05-09 00:09 -16.46731 -39.18783 1822 ft 134 kts 76°
2026-05-09 00:09 -16.46478 -39.17845 1822 ft 134 kts 76°
2026-05-09 00:09 -16.46226 -39.16912 1792 ft 134 kts 77°
2026-05-09 00:09 -16.45974 -39.15975 1640 ft 135 kts 75°
2026-05-09 00:10 -16.45720 -39.15035 1434 ft 135 kts 75°
2026-05-09 00:10 -16.45468 -39.14097 1265 ft 134 kts 75°
2026-05-09 00:10 -16.45212 -39.13153 1087 ft 136 kts 74°
2026-05-09 00:10 -16.44970 -39.12208 880 ft 134 kts 76°
2026-05-09 00:11 -16.44708 -39.11270 689 ft 134 kts 74°
2026-05-09 00:11 -16.44458 -39.10335 502 ft 134 kts 75°
2026-05-09 00:11 -16.44205 -39.09406 291 ft 134 kts 75°
2026-05-09 00:11 -16.43959 -39.08489 163 ft 126 kts 75°
2026-05-09 00:12 -16.43749 -39.07706 165 ft 84 kts 74°
2026-05-09 00:12 -16.43682 -39.07453 166 ft 13 kts 74°
2026-05-09 00:12 -16.43658 -39.07362 165 ft 13 kts 74°
2026-05-09 00:12 -16.43640 -39.07269 164 ft 13 kts 99°
2026-05-09 00:13 -16.43617 -39.07210 163 ft 9 kts 330°
2026-05-09 00:13 -16.43622 -39.07255 164 ft 6 kts 248°
2026-05-09 00:13 -16.43637 -39.07295 164 ft 7 kts 248°
2026-05-09 00:13 -16.43656 -39.07367 166 ft 14 kts 255°
2026-05-09 00:14 -16.43689 -39.07484 166 ft 18 kts 252°
2026-05-09 00:14 -16.43725 -39.07611 165 ft 19 kts 257°
2026-05-09 00:14 -16.43758 -39.07743 165 ft 19 kts 256°
2026-05-09 00:14 -16.43796 -39.07878 163 ft 20 kts 252°
2026-05-09 00:15 -16.43834 -39.08026 162 ft 22 kts 256°
2026-05-09 00:15 -16.43882 -39.08134 163 ft 14 kts 201°
2026-05-09 00:15 -16.43950 -39.08127 163 ft 6 kts 165°
2026-05-09 00:15 -16.43979 -39.08118 163 ft 3 kts 164°
2026-05-09 00:16 -16.43998 -39.08116 163 ft 2 kts 186°
2026-05-09 00:16 -16.44018 -39.08130 163 ft 3 kts 225°
2026-05-09 00:16 -16.44038 -39.08138 163 ft 3 kts 182°
2026-05-09 00:16 -16.44057 -39.08133 163 ft 3 kts 164°
2026-05-09 00:17 -16.44068 -39.08130 163 ft 0 kts 164°